AEE37J LGAV-LGMK

Flight info

Callsign AEE37J
Flight time 0h 20m
Altitude 11000
Route KEA L995 VARIX
Aircraft A320/M-SDE2GHIJ1RTWY/SB1

Departure

Time 2026-05-09 12:14
Airport Athens Eleftherios Venizelos International Airport (LGAV)

Arrival

Time 2026-05-09 12:34
Airport Mykonos Island National Airport (LGMK)
Time Latitude Longitude Altitude Speed Heading
2026-05-09 11:37 37.94231 23.95181 300 ft 0 kts 217°
2026-05-09 12:02 37.94239 23.95189 303 ft 4 kts 217°
2026-05-09 12:03 37.94260 23.95209 302 ft 4 kts 217°
2026-05-09 12:03 37.94277 23.95225 303 ft 4 kts 213°
2026-05-09 12:03 37.94301 23.95239 301 ft 4 kts 184°
2026-05-09 12:03 37.94324 23.95232 301 ft 3 kts 129°
2026-05-09 12:04 37.94326 23.95229 303 ft 1 kts 127°
2026-05-09 12:07 37.94323 23.95234 301 ft 2 kts 127°
2026-05-09 12:07 37.94310 23.95257 302 ft 5 kts 127°
2026-05-09 12:07 37.94284 23.95300 301 ft 7 kts 127°
2026-05-09 12:08 37.94247 23.95363 301 ft 10 kts 127°
2026-05-09 12:08 37.94204 23.95436 300 ft 2 kts 127°
2026-05-09 12:08 37.94198 23.95445 302 ft 3 kts 127°
2026-05-09 12:08 37.94181 23.95474 300 ft 6 kts 127°
2026-05-09 12:09 37.94162 23.95506 300 ft 8 kts 127°
2026-05-09 12:09 37.94105 23.95602 301 ft 13 kts 127°
2026-05-09 12:09 37.94105 23.95712 297 ft 16 kts 41°
2026-05-09 12:10 37.94416 23.96008 298 ft 21 kts 37°
2026-05-09 12:10 37.94540 23.96126 300 ft 23 kts 37°
2026-05-09 12:10 37.94674 23.96253 301 ft 25 kts 37°
2026-05-09 12:11 37.94816 23.96388 301 ft 26 kts 37°
2026-05-09 12:11 37.94967 23.96531 302 ft 28 kts 37°
2026-05-09 12:11 37.95111 23.96667 303 ft 26 kts 37°
2026-05-09 12:11 37.95248 23.96797 303 ft 17 kts 37°
2026-05-09 12:12 37.95295 23.96900 305 ft 14 kts 112°
2026-05-09 12:12 37.95239 23.97000 309 ft 13 kts 132°
2026-05-09 12:12 37.95173 23.97005 310 ft 10 kts 212°
2026-05-09 12:12 37.95109 23.96945 312 ft 13 kts 217°
2026-05-09 12:13 37.94978 23.96821 310 ft 46 kts 216°
2026-05-09 12:13 37.94533 23.96398 293 ft 111 kts 217°
2026-05-09 12:13 37.93779 23.95683 299 ft 156 kts 217°
2026-05-09 12:13 37.92881 23.94924 893 ft 153 kts 204°
2026-05-09 12:14 37.91934 23.94288 1588 ft 154 kts 206°
2026-05-09 12:14 37.90992 23.93653 2321 ft 153 kts 205°
2026-05-09 12:14 37.90042 23.93011 2903 ft 156 kts 207°
2026-05-09 12:14 37.89079 23.92352 3491 ft 160 kts 208°
2026-05-09 12:15 37.88038 23.91640 3810 ft 182 kts 209°
2026-05-09 12:15 37.86857 23.90830 4080 ft 205 kts 209°
2026-05-09 12:15 37.85518 23.89915 4417 ft 232 kts 210°
2026-05-09 12:15 37.84057 23.88916 5148 ft 242 kts 210°
2026-05-09 12:16 37.82574 23.87904 6021 ft 247 kts 211°
2026-05-09 12:16 37.81050 23.86867 6969 ft 249 kts 211°
2026-05-09 12:16 37.79532 23.85837 7994 ft 247 kts 211°
2026-05-09 12:16 37.77992 23.84809 8852 ft 252 kts 206°
2026-05-09 12:17 37.76253 23.84382 9690 ft 265 kts 176°
2026-05-09 12:17 37.74505 23.85282 10286 ft 289 kts 145°
2026-05-09 12:17 37.73153 23.87323 10593 ft 319 kts 126°
2026-05-09 12:17 37.72007 23.89850 10817 ft 344 kts 120°
2026-05-09 12:18 37.70926 23.92630 10985 ft 358 kts 118°
2026-05-09 12:18 37.69840 23.95563 11026 ft 378 kts 118°
2026-05-09 12:18 37.68706 23.98595 11032 ft 384 kts 118°
2026-05-09 12:18 37.67533 24.01626 11036 ft 385 kts 120°
2026-05-09 12:19 37.66321 24.04635 11033 ft 384 kts 120°
2026-05-09 12:19 37.65079 24.07627 11036 ft 385 kts 121°
2026-05-09 12:19 37.63822 24.10609 11036 ft 385 kts 121°
2026-05-09 12:19 37.62560 24.13588 11036 ft 385 kts 121°
2026-05-09 12:20 37.61297 24.16572 11034 ft 385 kts 121°
2026-05-09 12:20 37.60038 24.19552 11034 ft 385 kts 121°
2026-05-09 12:20 37.58779 24.22541 11030 ft 385 kts 121°
2026-05-09 12:20 37.57526 24.25528 11035 ft 386 kts 121°
2026-05-09 12:21 37.56725 24.27531 11030 ft 387 kts 117°
2026-05-09 12:21 37.55868 24.30760 11039 ft 391 kts 105°
2026-05-09 12:21 37.55514 24.34076 11031 ft 373 kts 95°
2026-05-09 12:21 37.55377 24.37255 11017 ft 355 kts 95°
2026-05-09 12:22 37.55235 24.40301 10895 ft 342 kts 96°
2026-05-09 12:22 37.55090 24.43248 10776 ft 331 kts 96°
2026-05-09 12:22 37.54948 24.46103 10655 ft 321 kts 96°
2026-05-09 12:22 37.54808 24.48892 10397 ft 317 kts 96°
2026-05-09 12:23 37.54669 24.51655 10080 ft 315 kts 96°
2026-05-09 12:23 37.54532 24.54405 9776 ft 313 kts 96°
2026-05-09 12:23 37.54396 24.57137 9439 ft 311 kts 96°
2026-05-09 12:23 37.54261 24.59851 9108 ft 309 kts 97°
2026-05-09 12:24 37.54125 24.62549 8771 ft 307 kts 97°
2026-05-09 12:24 37.53989 24.65229 8454 ft 306 kts 97°
2026-05-09 12:24 37.53856 24.67893 8143 ft 303 kts 97°
2026-05-09 12:24 37.53723 24.70539 7827 ft 302 kts 97°
2026-05-09 12:25 37.53589 24.73141 7512 ft 300 kts 97°
2026-05-09 12:25 37.53452 24.75754 7204 ft 298 kts 97°
2026-05-09 12:25 37.53315 24.78359 6909 ft 296 kts 97°
2026-05-09 12:25 37.53182 24.80942 6616 ft 295 kts 97°
2026-05-09 12:26 37.53049 24.83514 6300 ft 293 kts 97°
2026-05-09 12:26 37.52917 24.86065 6008 ft 291 kts 97°
2026-05-09 12:26 37.52783 24.88593 5701 ft 287 kts 97°
2026-05-09 12:26 37.52651 24.91089 5283 ft 284 kts 97°
2026-05-09 12:27 37.52521 24.93556 4897 ft 280 kts 97°
2026-05-09 12:27 37.52393 24.95991 4491 ft 277 kts 97°
2026-05-09 12:27 37.52266 24.98401 4080 ft 274 kts 97°
2026-05-09 12:27 37.52139 25.00782 3659 ft 271 kts 98°
2026-05-09 12:28 37.52012 25.03138 3345 ft 265 kts 98°
2026-05-09 12:28 37.51893 25.05382 3301 ft 247 kts 98°
2026-05-09 12:28 37.51784 25.07450 3301 ft 226 kts 98°
2026-05-09 12:28 37.51685 25.09346 3301 ft 208 kts 99°
2026-05-09 12:29 37.51591 25.11107 3299 ft 198 kts 99°
2026-05-09 12:29 37.51497 25.12825 3300 ft 195 kts 100°
2026-05-09 12:29 37.51418 25.14524 3299 ft 191 kts 93°
2026-05-09 12:29 37.51645 25.16175 3175 ft 194 kts 78°
2026-05-09 12:30 37.51963 25.17526 3061 ft 190 kts 78°
2026-05-09 12:30 37.52338 25.19097 2853 ft 185 kts 78°
2026-05-09 12:30 37.53056 25.22120 2583 ft 175 kts 83°
2026-05-09 12:31 37.53120 25.23609 2511 ft 168 kts 103°
2026-05-09 12:31 37.52668 25.26469 2371 ft 165 kts 112°
2026-05-09 12:31 37.52220 25.27752 2249 ft 153 kts 126°
2026-05-09 12:32 37.51600 25.28753 2172 ft 138 kts 139°
2026-05-09 12:32 37.50869 25.29496 2075 ft 134 kts 150°
2026-05-09 12:32 37.50096 25.30157 1871 ft 134 kts 149°
2026-05-09 12:32 37.49330 25.30816 1668 ft 133 kts 148°
2026-05-09 12:33 37.48557 25.31480 1473 ft 136 kts 148°
2026-05-09 12:33 37.47776 25.32151 1256 ft 135 kts 148°
2026-05-09 12:33 37.47009 25.32835 1084 ft 136 kts 145°
2026-05-09 12:33 37.46240 25.33523 877 ft 135 kts 149°
2026-05-09 12:34 37.45389 25.33993 686 ft 136 kts 161°
2026-05-09 12:34 37.44498 25.34386 478 ft 136 kts 160°
2026-05-09 12:34 37.43650 25.34763 411 ft 116 kts 158°
2026-05-09 12:34 37.43175 25.34973 413 ft 29 kts 160°
2026-05-09 12:35 37.43029 25.35037 414 ft 22 kts 161°
2026-05-09 12:35 37.42878 25.35104 412 ft 24 kts 161°
2026-05-09 12:35 37.42779 25.35163 411 ft 14 kts 130°
2026-05-09 12:35 37.42732 25.35146 410 ft 12 kts 318°
2026-05-09 12:36 37.42819 25.35129 407 ft 13 kts 348°
2026-05-09 12:36 37.42911 25.35090 413 ft 14 kts 342°
2026-05-09 12:36 37.43011 25.35050 414 ft 16 kts 342°
2026-05-09 12:36 37.43126 25.34997 413 ft 19 kts 340°
2026-05-09 12:37 37.43261 25.34937 413 ft 22 kts 341°
2026-05-09 12:37 37.43382 25.34863 412 ft 13 kts 313°
2026-05-09 12:37 37.43421 25.34767 408 ft 10 kts 295°
2026-05-09 12:37 37.43476 25.34723 408 ft 11 kts 342°
2026-05-09 12:38 37.43518 25.34706 408 ft 2 kts 341°
2026-05-09 12:38 37.43520 25.34693 408 ft 2 kts 276°
2026-05-09 12:38 37.43512 25.34665 407 ft 4 kts 251°
2026-05-09 12:38 37.43507 25.34644 404 ft 0 kts 251°
2026-05-09 12:39 37.43505 25.34638 405 ft 0 kts 251°